Location: Chippewa Lake
(41.0698°N, 81.9010°W)
Time: 21:41:18
(UTC+00:00)

CRYOSAT 2 - Pass Details

Date: 09 May 2021
Orbit: 714 x 725 km, 92.0° (Epoch: 16 June)

Event Time Altitude Azimuth Distance (km) Brightness Sun altitude
Exits shadow 02:44:50 34° 188° (S) 1,184 5.1 -20.9°
Maximum altitude 02:46:58 73° 266° (W) 759 4.5 -21.1°
Drops below altitude 10° 02:51:53 10° 351° (N) 2,223 7.7 -21.7°
Sets 02:54:11 0° 354° (N) 3,147 8.6 -22.0°
